Regional Weather Roundup
Issued by NWS

Home | Current Version | Previous Version | Text Only | Print | Product List | Glossary On
Versions: 1 2 3 4 5 6 7 8 9 10 11 12 13 14 15 16 17 18 19 20 21 22 23 24 25 26 27 28 29 30 31 32 33 34 35 36 37 38 39 40 41 42 43 44 45 46 47 48 49 50
000
ASUS45 KREV 241410
RWRNV
NEVADA REGIONAL WEATHER ROUNDUP
NATIONAL WEATHER SERVICE RENO NV
700 AM PDT FRI MAR 24 2017

NOTE: "FAIR" INDICATES FEW OR NO CLOUDS BELOW 12,000 FEET WITH NO
SIGNIFICANT WEATHER AND/OR OBSTRUCTIONS TO VISIBILITY.

NVZ001-003-004-241500-
WESTERN NEVADA

CITY           SKY/WX    TMP DP  RH WIND       PRES   REMARKS
RENO           MOCLDY    42  25  50 N8        30.06F
CARSON CITY    CLOUDY    41  25  52 SE3       30.10S
MINDEN         MOCLDY    41  25  52 N5        30.10R
FALLON         MOCLDY    40  22  48 SW6       30.04F
LOVELOCK       CLOUDY    33  26  75 E3        30.06F
HAWTHORNE      CLEAR     39  18  41 S6        30.08F
$$

NVZ002-CAZ072-073-241500-
NORTHERN AND CENTRAL SIERRA

CITY           SKY/WX    TMP DP  RH WIND       PRES   REMARKS
S. LAKE TAHOE  MIX PCPN  35  25  66 SE10G18   30.11F
TRUCKEE        CLOUDY    34  27  75 SW22G28   30.12S
SQUAW VLY 8000   N/A     25  23  93 S16         N/A
SUSANVILLE     CLOUDY    43  32  65 CALM      30.04S
MAMMOTH LAKES  CLOUDY    32  22  67 SW5       30.21S
BRIDGEPORT       N/A     37  24  59 VRB3      30.07F
$$

NVZ030-031-036-241500-
NORTHERN NEVADA

CITY           SKY/WX    TMP DP  RH WIND       PRES   REMARKS
ELKO           MOCLDY    33  27  78 E6        30.15R
WINNEMUCCA     MOCLDY    40  26  57 S12       30.06F
WENDOVER       PTCLDY    35  25  66 E9        30.19R
$$

NVZ035-037-241500-
CENTRAL NEVADA

CITY           SKY/WX    TMP DP  RH WIND       PRES   REMARKS
ELY            MOCLDY    24  20  84 S12       30.21S
EUREKA           N/A     30  24  78 SW6       30.18R
$$

NVZ013-014-241500-
SOUTH CENTRAL NEVADA

CITY           SKY/WX    TMP DP  RH WIND       PRES   REMARKS
TONOPAH        PTCLDY    30  23  75 N7        30.21R
$$

NVZ017-020-022-241500-
SOUTHERN NEVADA

CITY           SKY/WX    TMP DP  RH WIND       PRES   REMARKS
LAS VEGAS      CLEAR     51  31  46 S5        30.18R
N. LAS VEGAS   CLEAR     48  29  47 N6        30.18R
NELLIS AFB     CLEAR     47  34  61 CALM      30.18R
HENDERSON      CLEAR     46  24  42 S8        30.20R
MERCURY        CLEAR     38  27  64 E3        30.18R
$$



USA.gov is the U.S. government's official web portal to all federal, state and local government web resources and services.